Location: The D'Auria's Ocala Star Observatory
(29.0276°N, 82.1742°W)
Time: 08:09:24
(UTC-05:00)

Daily predictions for brighter satellites

Satellite Brightness Start Highest point End
(mag) Time Altitude Azimuth Time Altitude Azimuth Time Altitude Azimuth
Cosmos 2219 Rocket 2.7 18:40:06 10° NNW 18:45:42 66° WSW 18:51:15 10° S
COSMO-SKYMED 1 3.4 18:42:23 10° N 18:46:38 57° WNW 18:50:52 10° SSW
Sakura Rocket 4.0 18:47:56 10° WSW 18:52:59 66° SSE 19:00:02 10° E
MOS 1 4.3 18:47:28 10° SSE 18:53:04 68° ENE 18:58:41 10° N
Cosmos 2227 Rocket 3.6 18:48:19 10° SW 18:53:37 41° WNW 18:58:57 10° N
FENGYUN 3A 3.7 18:48:59 10° SSE 18:54:21 83° ENE 18:59:47 10° N
SeaSat 1 4.3 18:53:59 10° ENE 18:55:04 11° NE 18:56:10 10° NE
USA 215 3.3 18:53:20 10° NE 18:59:53 80° SE 19:06:25 10° SW
Cosmos 2237 Rocket 2.1 18:55:46 10° NNW 19:01:24 79° ENE 19:07:01 10° SSE
FREGAT/IRIS 3.8 19:01:07 10° SE 19:03:29 22° ENE 19:05:52 10° NNE
Tiangong 2 3.1 19:02:05 10° NNW 19:04:13 16° NNE 19:05:47 12° NE
Thor Agena Rocket 4.2 19:00:03 10° NE 19:04:30 31° E 19:08:55 10° SSE
Cosmos 1269 Rocket 4.4 18:59:44 10° S 19:04:39 41° E 19:09:34 10° NNE
SL-16 R/B 2.9 19:00:19 10° N 19:05:16 30° ENE 19:10:11 10° SE
H-2A R/B 3.0 19:02:21 10° SSE 19:06:06 46° ENE 19:09:51 10° N
CZ-4 R/B 4.1 19:03:45 10° SSW 19:07:09 25° W 19:10:30 10° NW
Cosmos 2297 Rocket 3.8 19:02:25 10° SW 19:07:35 36° WNW 19:12:46 10° N
Meteor 1-14 Rocket 4.3 19:02:40 10° S 19:08:22 84° E 19:14:15 10° N
MOS 1-B Rocket 4.3 19:02:14 10° S 19:09:03 81° WSW 19:15:01 10° NNW
GPS 2-14 Rocket1 4.4 19:06:32 10° WSW 19:10:02 26° S 19:13:30 10° SE
Cosmos 1674 Rocket 3.4 19:06:37 10° N 19:10:55 67° E 19:15:11 10° SSE
Cosmos 1908 Rocket 3.5 19:07:49 10° S 19:12:15 69° E 19:16:42 10° NNE
IUS-18 SRM-1 2.2 19:11:04 10° W 19:13:10 46° S 19:15:54 14° ESE
YAOGAN 1 4.5 19:09:35 10° SSW 19:13:30 34° W 19:17:27 10° NNW
Meteor 1-20 Rocket 4.2 19:09:36 10° S 19:15:14 80° E 19:21:01 10° N
Cosmos 1633 2.5 19:12:28 10° S 19:16:00 81° W 19:19:34 10° N
Okean 1 4.3 19:13:15 10° NNE 19:16:35 25° E 19:19:52 10° SE
Okean 3 3.3 19:14:32 10° N 19:18:41 65° E 19:22:49 10° SSE
ERS-2 2.4 19:15:40 10° SSE 19:19:10 44° ENE 19:22:41 10° N
Cosmos 921 Rocket 4.2 19:19:34 10° NNE 19:23:08 23° ENE 19:23:43 22° E
CZ-2D R/B 4.3 19:22:37 22° E 19:23:31 25° ENE 19:26:43 10° NNE
H-2A R/B 3.9 19:16:37 10° SSW 19:24:46 19° S 19:27:56 12° SE
ALOS 4.0 19:22:06 10° SSW 19:26:23 37° W 19:30:41 10° NNW
CENTAUR R/B 3.3 19:23:29 10° SW 19:29:04 50° WNW 19:35:23 10° NNE
Cosmos 1812 3.1 19:26:30 10° NNW 19:30:21 65° W 19:34:10 10° S
Cosmos 1602 3.8 19:31:55 10° S 19:35:44 53° E 19:39:31 10° NNE
Cosmos 2263 Rocket 3.3 19:33:59 10° SSE 19:37:15 22° ESE 19:37:15 22° ESE
Meteor 1-18 Rocket 4.1 19:32:52 10° N 19:38:26 77° E 19:43:58 10° S
Resurs 01 Rocket 3.9 19:42:38 11° NNE 19:42:38 11° NNE 19:42:46 10° NNE
Cosmos 44 3.4 19:34:34 10° NNW 19:39:39 60° ENE 19:43:33 18° SE
Cosmos 1975 Rocket 3.3 19:41:39 10° N 19:45:53 43° E 19:46:31 40° ESE
Lacrosse 5 3.1 19:45:15 10° NW 19:49:58 40° WSW 19:54:40 10° S
Cosmos 1513 Rocket 4.5 19:43:45 10° N 19:50:06 89° W 19:56:17 10° S
Meteor 1-11 Rocket 3.8 19:44:52 10° SSE 19:50:08 47° E 19:55:30 10° NNE
Cosmos 1437 Rocket 3.1 19:46:33 10° SSW 19:50:31 66° W 19:54:34 10° N
Cosmos 1452 Rocket 3.8 19:45:51 10° NNW 19:51:04 70° WSW 19:56:16 10° S
Meteor 1-19 Rocket 4.4 19:48:30 10° N 19:53:45 44° E 19:54:50 39° ESE
Iridium 4 Rocket 3.7 19:51:01 10° N 19:55:39 59° W 19:59:55 10° SSW
Cosmos 2227 4.2 19:50:01 10° SSW 19:55:46 83° WNW 20:01:30 10° NNE
Geosat 3.9 19:51:12 11° NNE 19:56:01 84° ESE 20:01:02 10° SSW
COSMOS 2455 2.9 19:51:23 10° S 19:57:13 56° ESE 19:59:33 35° NE
Gbstr 26 Del rocket 3.6 19:53:58 10° WSW 19:57:31 42° NW 19:58:46 31° N
Shenzhou-11 Module 4.0 19:58:08 10° W 20:00:35 23° SW 20:00:54 22° SSW
GPS 2-05 Rocket1 3.5 19:57:41 10° WSW 20:00:01 46° WSW 20:00:01 46° WSW
CRYOSAT 2 4.4 19:56:14 10° N 20:01:06 80° W 20:05:56 10° S
Tsikada Rocket 4.0 19:55:02 10° S 20:01:26 85° W 20:07:52 10° N
OAO 2 Rocket 4.1 20:20:07 10° WNW 20:24:26 40° NNW 20:24:26 40° NNW
Okean 2 Rocket 4.2 20:23:22 10° SSW 20:27:31 43° W 20:31:43 10° N
SeaSat 1 2.8 20:32:53 58° NW 20:32:53 58° NW 20:36:53 10° NNW
Envisat 3.7 20:30:42 11° S 20:35:27 50° W 20:40:23 10° NNW
Sakura Rocket 4.2 20:41:15 10° W 20:47:28 86° WSW 20:47:28 86° WSW
SL-16 R/B 4.1 20:44:32 10° NW 20:49:10 27° WSW 20:53:47 10° SSW
Cosmos 2263 Rocket 4.3 21:17:00 10° SW 21:19:05 21° WSW 21:19:05 21° WSW
CZ-3C R/B 3.5 21:21:11 10° WSW 22:12:39 - E 21:25:19 49° SSW
